Regional Weather Roundup
Issued by NWS Mt. Holly, NJ

Home | Current Version | Previous Version | Text Only | Print | Product List | Glossary On
Versions: 1 2 3 4 5 6 7 8 9 10 11 12 13 14 15 16 17 18 19 20 21 22 23 24 25 26 27 28 29 30 31 32 33 34 35 36 37 38 39 40 41 42 43 44 45 46 47 48 49 50
000
ASUS41 KPHI 271520
RWRPHI

REGIONAL WEATHER ROUNDUP
NATIONAL WEATHER SERVICE MOUNT HOLLY NJ
1100 AM EDT THU APR 27 2017

NOTE:  "FAIR" INDICATES FEW OR NO CLOUDS BELOW 12,000 FEET WITH NO
SIGNIFICANT WEATHER AND/OR OBSTRUCTIONS TO VISIBILITY.

 * = STATION DOES NOT REPORT PRECIPITATION (E.G. RAIN, SNOW, ETC.)
        OR FOG.

NJZ015>026-271600-
SOUTHERN NEW JERSEY

CITY           SKY/WX    TMP DP  RH WIND       PRES   REMARKS
POMONA         MOSUNNY   68  58  70 SE8       29.91S
WILDWOOD*      CLOUDY    63  57  81 SE14      29.92R
MILLVILLE      SUNNY     72  64  76 SE9       29.89S
WRIGHTSTOWN    PTSUNNY   68  59  73 S6        29.87F
MOUNT HOLLY    PTSUNNY   68  59  73 CALM      29.90S
TRENTON        CLOUDY    67  59  75 S7        29.89F

$$
NJZ001>014-271600-
NORTHERN NEW JERSEY

CITY           SKY/WX    TMP DP  RH WIND       PRES   REMARKS
SUSSEX         CLOUDY    65  59  81 CALM      29.90S
ANDOVER*         N/A     65  56  72 VRB6      29.89F
MORRISTOWN     CLOUDY    64  57  77 S5        29.90F HAZE
NEWARK         PTSUNNY   65  58  78 E6        29.90F
TETERBORO      CLOUDY    66  59  78 VRB3      29.89F
CALDWELL       CLOUDY    64  57  78 VRB6      29.90F
SOMERVILLE     CLOUDY    68  59  73 CALM      29.88F
ALLAIRE*       CLOUDY    66  58  75 E8        29.92F

$$
PAZ043-044-047-054-055-060>062-066>071-271600-
EASTERN PENNSYLVANIA

CITY           SKY/WX    TMP DP  RH WIND       PRES   REMARKS
PHILADELPHIA   MOSUNNY   71  60  68 SE6       29.89S
NORTH PHILA    MOSUNNY   70  60  70 SE8       29.91F
BLUE BELL*     PTSUNNY   66  59  77 E8        29.90F
DOYLESTOWN     CLOUDY    65  59  81 S6        29.89F
QUAKERTOWN*    CLOUDY    68  59  73 S5        29.90S
POTTSTOWN      CLOUDY    66  59  78 VRB5      29.90S
LANCASTER      MOSUNNY   71  64  78 SE5       29.86S
COATESVILLE    SUNNY     70  63  78 VRB6      29.90S
READING        CLOUDY    67  61  81 VRB5      29.87S
ALLENTOWN      CLOUDY    67  57  70 S3        29.89S
MOUNT POCONO   CLOUDY    56  56 100 SE7       29.90S FOG
WILKES BARRE   CLOUDY    67  58  72 S8        29.86S

$$
DEZALL-MDZ008-012-015-019-020-271600-
DELAWARE AND EASTERN MARYLAND

CITY           SKY/WX    TMP DP  RH WIND       PRES   REMARKS
WILMINGTON     SUNNY     69  62  78 SE8       29.89S
DOVER          MOSUNNY   64  64 100 E7        29.88R
GEORGETOWN     SUNNY     73  64  73 SW5       29.88S
EASTON         MOSUNNY   73  64  73 SW5       29.91R
PATUXENT       MOSUNNY   76  67  73 S9        29.87R
OCEAN CITY     MOSUNNY   62  59  90 S6        29.90R
WALLOPS ISLAND PTSUNNY   68  64  87 S8        29.90R
CAMBRIDGE      SUNNY     73  66  78 SE7       29.88R
SALISBURY      SUNNY     75  67  76 S12       29.88R

$$
PAZ001-021-NYZ056-072-MDZ011-DCZ001-271600-
OTHER NEARBY LOCATIONS

CITY           SKY/WX    TMP DP  RH WIND       PRES   REMARKS
HARRISBURG     CLOUDY    67  61  81 SE6       29.86S
STATE COLLEGE  CLOUDY    63  57  82 CALM      29.84R
WILLIAMSPORT   CLOUDY    63  58  83 E6        29.84R HAZE
BINGHAMTON     CLOUDY    63  56  78 S10       29.85S
NEW YORK CITY  CLOUDY    63  59  87 CALM      29.94F FOG
BALTIMORE      PTSUNNY   68  63  84 E5        29.87R
WASHINGTON DC  PTSUNNY   72  64  76 S7        29.87R

$$



USA.gov is the U.S. government's official web portal to all federal, state and local government web resources and services.